When you browse on this site, cookies collect data to enhance your experience and personalize the content and advertising you see.
Visit our Privacy Policy to learn more. By continuing to use the site, you agree to this use of cookies and data.
  • In France
  • List of Countries
  • For 7 days
  • Water Temperature
  • Weather Map
  • Weather Widgets
  • user-avatar
    Login

    Hourly Weather Aba-el-Baul

    Today, 5 April, Sunday

    Time Temperature Precipitation Wind Pressure Humidity
    00:00 +26°C° 0 mm 4 mps 757 mmHg 44%
    01:00 +26°C° 0.1 mm 4 mps 757 mmHg 44%
    02:00 +26°C° 0.1 mm 5 mps 756 mmHg 45%
    03:00 +24°C° 0 mm 6 mps 756 mmHg 43%
    04:00 +25°C° 0 mm 5 mps 757 mmHg 43%
    05:00 +25°C° 0 mm 5 mps 757 mmHg 43%
    06:00 +25°C° 0 mm 5 mps 758 mmHg 44%
    07:00 +27°C° 0 mm 5 mps 758 mmHg 35%
    08:00 +29°C° 0 mm 5 mps 758 mmHg 27%
    09:00 +33°C° 0 mm 6 mps 758 mmHg 19%
    10:00 +34°C° 0 mm 6 mps 758 mmHg 17%
    11:00 +35°C° 0 mm 5 mps 758 mmHg 16%
    12:00 +36°C° 0 mm 5 mps 758 mmHg 14%
    13:00 +36°C° 0 mm 6 mps 757 mmHg 14%
    14:00 +36°C° 0 mm 7 mps 757 mmHg 13%
    15:00 +36°C° 0 mm 7 mps 756 mmHg 14%
    16:00 +34°C° 0 mm 7 mps 756 mmHg 16%
    17:00 +33°C° 0 mm 7 mps 757 mmHg 18%
    18:00 +32°C° 0 mm 7 mps 757 mmHg 20%
    19:00 +29°C° 0 mm 6 mps 757 mmHg 25%
    20:00 +28°C° 0 mm 5 mps 757 mmHg 30%
    21:00 +27°C° 0 mm 4 mps 757 mmHg 35%
    22:00 +26°C° 0 mm 4 mps 757 mmHg 39%
    23:00 +26°C° 0 mm 4 mps 757 mmHg 43%

    Tomorrow, 6 April, Monday

    Time Temperature Precipitation Wind Pressure Humidity
    00:00 +25°C° 0 mm 4 mps 757 mmHg 46%
    01:00 +25°C° 0 mm 4 mps 757 mmHg 48%
    02:00 +23°C° 0 mm 4 mps 756 mmHg 49%
    03:00 +23°C° 0 mm 4 mps 756 mmHg 50%
    04:00 +23°C° 0 mm 4 mps 756 mmHg 48%
    05:00 +24°C° 0 mm 3 mps 757 mmHg 45%
    06:00 +24°C° 0 mm 3 mps 757 mmHg 43%
    07:00 +26°C° 0 mm 3 mps 757 mmHg 35%
    08:00 +29°C° 0 mm 4 mps 757 mmHg 27%
    09:00 +32°C° 0 mm 4 mps 758 mmHg 19%
    10:00 +33°C° 0 mm 5 mps 758 mmHg 17%
    11:00 +34°C° 0 mm 5 mps 757 mmHg 15%
    12:00 +36°C° 0 mm 6 mps 757 mmHg 12%
    13:00 +36°C° 0 mm 6 mps 757 mmHg 12%
    14:00 +36°C° 0 mm 6 mps 756 mmHg 12%
    15:00 +36°C° 0 mm 6 mps 756 mmHg 13%
    16:00 +35°C° 0 mm 5 mps 756 mmHg 14%
    17:00 +34°C° 0 mm 4 mps 756 mmHg 15%
    18:00 +32°C° 0 mm 4 mps 756 mmHg 16%
    19:00 +30°C° 0 mm 4 mps 756 mmHg 17%
    20:00 +29°C° 0 mm 3 mps 756 mmHg 18%
    21:00 +28°C° 0 mm 3 mps 756 mmHg 18%
    22:00 +28°C° 0 mm 3 mps 756 mmHg 19%
    23:00 +27°C° 0 mm 3 mps 756 mmHg 19%

    Day after tomorrow, 7 April, Tuesday

    Time Temperature Precipitation Wind Pressure Humidity
    00:00 +27°C° 0 mm 3 mps 755 mmHg 20%
    01:00 +27°C° 0 mm 3 mps 755 mmHg 20%
    02:00 +27°C° 0 mm 2 mps 755 mmHg 21%
    03:00 +26°C° 0 mm 2 mps 754 mmHg 22%
    04:00 +26°C° 0 mm 2 mps 755 mmHg 22%
    05:00 +26°C° 0 mm 2 mps 755 mmHg 22%
    06:00 +26°C° 0 mm 2 mps 755 mmHg 22%
    07:00 +29°C° 0 mm 2 mps 755 mmHg 20%
    08:00 +31°C° 0 mm 2 mps 756 mmHg 17%
    09:00 +34°C° 0 mm 2 mps 756 mmHg 14%
    10:00 +36°C° 0 mm 3 mps 756 mmHg 13%
    11:00 +37°C° 0 mm 3 mps 755 mmHg 13%
    12:00 +39°C° 0 mm 3 mps 755 mmHg 12%
    13:00 +38°C° 0 mm 3 mps 754 mmHg 13%
    14:00 +38°C° 0 mm 4 mps 754 mmHg 14%
    15:00 +38°C° 0 mm 4 mps 753 mmHg 15%
    16:00 +36°C° 0 mm 4 mps 753 mmHg 18%
    17:00 +34°C° 0 mm 4 mps 753 mmHg 21%
    18:00 +32°C° 0 mm 4 mps 753 mmHg 24%
    19:00 +32°C° 0 mm 4 mps 753 mmHg 25%
    20:00 +30°C° 0 mm 4 mps 753 mmHg 26%
    21:00 +29°C° 0 mm 3 mps 754 mmHg 28%
    22:00 +29°C° 0 mm 3 mps 753 mmHg 27%
    23:00 +29°C° 0 mm 4 mps 753 mmHg 27%

    8 April, Wednesday

    Time Temperature Precipitation Wind Pressure Humidity
    00:00 +29°C° 0 mm 4 mps 753 mmHg 27%
    01:00 +29°C° 0 mm 4 mps 752 mmHg 27%
    02:00 +28°C° 0 mm 4 mps 752 mmHg 27%
    03:00 +28°C° 0 mm 3 mps 752 mmHg 27%
    04:00 +28°C° 0 mm 3 mps 752 mmHg 26%
    05:00 +28°C° 0 mm 3 mps 753 mmHg 24%
    06:00 +28°C° 0 mm 3 mps 753 mmHg 23%
    07:00 +31°C° 0 mm 3 mps 753 mmHg 20%
    08:00 +34°C° 0 mm 3 mps 754 mmHg 17%
    09:00 +36°C° 0 mm 3 mps 754 mmHg 14%
    10:00 +38°C° 0 mm 4 mps 753 mmHg 13%
    11:00 +40°C° 0 mm 4 mps 753 mmHg 12%
    12:00 +42°C° 0 mm 4 mps 753 mmHg 11%
    13:00 +42°C° 0 mm 4 mps 752 mmHg 11%
    14:00 +42°C° 0 mm 3 mps 751 mmHg 11%
    15:00 +43°C° 0 mm 3 mps 751 mmHg 11%
    16:00 +41°C° 0 mm 4 mps 751 mmHg 14%
    17:00 +39°C° 0 mm 5 mps 751 mmHg 17%
    18:00 +35°C° 0 mm 6 mps 751 mmHg 20%
    19:00 +35°C° 0 mm 6 mps 751 mmHg 23%
    20:00 +34°C° 0 mm 5 mps 751 mmHg 25%
    21:00 +33°C° 0 mm 5 mps 752 mmHg 28%
    22:00 +33°C° 0 mm 5 mps 752 mmHg 30%
    23:00 +32°C° 0 mm 4 mps 751 mmHg 31%

    9 April, Thursday

    Time Temperature Precipitation Wind Pressure Humidity
    00:00 +32°C° 0 mm 4 mps 751 mmHg 33%
    01:00 +32°C° 0 mm 4 mps 751 mmHg 32%
    02:00 +32°C° 0 mm 4 mps 751 mmHg 31%
    03:00 +32°C° 0 mm 4 mps 750 mmHg 30%
    04:00 +32°C° 0 mm 4 mps 751 mmHg 28%
    05:00 +32°C° 0 mm 4 mps 751 mmHg 26%
    06:00 +32°C° 0 mm 4 mps 752 mmHg 24%
    07:00 +34°C° 0 mm 3 mps 752 mmHg 21%
    08:00 +36°C° 0 mm 3 mps 753 mmHg 18%
    09:00 +38°C° 0 mm 2 mps 753 mmHg 16%
    10:00 +39°C° 0 mm 3 mps 753 mmHg 15%
    11:00 +40°C° 0 mm 3 mps 753 mmHg 14%
    12:00 +42°C° 0 mm 4 mps 752 mmHg 13%
    13:00 +41°C° 0 mm 5 mps 752 mmHg 16%
    14:00 +40°C° 0 mm 6 mps 751 mmHg 19%
    15:00 +39°C° 0 mm 7 mps 751 mmHg 22%
    16:00 +38°C° 0 mm 7 mps 750 mmHg 25%
    17:00 +36°C° 0 mm 7 mps 750 mmHg 28%
    18:00 +34°C° 0 mm 7 mps 750 mmHg 30%
    19:00 +34°C° 0 mm 6 mps 750 mmHg 32%
    20:00 +33°C° 0 mm 6 mps 751 mmHg 34%
    21:00 +33°C° 0 mm 5 mps 751 mmHg 35%
    22:00 +32°C° 0 mm 6 mps 751 mmHg 36%
    23:00 +32°C° 0 mm 6 mps 751 mmHg 37%

    10 April, Friday

    Time Temperature Precipitation Wind Pressure Humidity
    00:00 +32°C° 0 mm 6 mps 750 mmHg 38%
    01:00 +32°C° 0 mm 6 mps 750 mmHg 38%
    02:00 +32°C° 0 mm 6 mps 750 mmHg 38%
    03:00 +30°C° 0 mm 6 mps 749 mmHg 38%
    04:00 +30°C° 0 mm 6 mps 750 mmHg 37%
    05:00 +30°C° 0 mm 5 mps 750 mmHg 36%
    06:00 +30°C° 0 mm 5 mps 750 mmHg 34%
    07:00 +34°C° 0 mm 6 mps 751 mmHg 29%
    08:00 +36°C° 0 mm 7 mps 751 mmHg 23%
    09:00 +40°C° 0 mm 8 mps 752 mmHg 17%
    10:00 +41°C° 0 mm 8 mps 751 mmHg 14%
    11:00 +44°C° 0 mm 7 mps 751 mmHg 11%
    12:00 +46°C° 0 mm 7 mps 751 mmHg 8%
    13:00 +46°C° 0 mm 7 mps 750 mmHg 8%
    14:00 +46°C° 0 mm 6 mps 750 mmHg 8%
    15:00 +46°C° 0 mm 6 mps 749 mmHg 8%
    16:00 +44°C° 0 mm 6 mps 749 mmHg 10%
    17:00 +42°C° 0 mm 5 mps 749 mmHg 12%
    18:00 +40°C° 0 mm 5 mps 749 mmHg 14%
    19:00 +37°C° 0 mm 5 mps 750 mmHg 18%
    20:00 +36°C° 0 mm 6 mps 750 mmHg 23%
    21:00 +35°C° 0 mm 6 mps 750 mmHg 27%
    22:00 +34°C° 0 mm 6 mps 750 mmHg 27%
    23:00 +34°C° 0 mm 5 mps 750 mmHg 27%
    Show more